This demonstration page uses our WeatherBlox Daily Observations layout. Learn more.

Left ArrowRight Arrow

Hourly Observations for September 25, 2019

Temp ( °F °C ) Dew Point ( °F °C ) Humidity (%) Winds ( mph kmh ) Pressure ( in mb ) Visibility ( mi km ) Precip ( " mm )
12:53 am 00:53 Clear 66 18.9 56 13.3 70 70 Calm 29.85 1011 10 16 0.00 0.00
1:53 am 01:53 Clear 63 17.2 57 13.9 81 81 Calm 29.86 1011 10 16 0.00 0.00
2:53 am 02:53 Clear 65 18.3 57 13.9 76 76 Calm 29.85 1011 10 16 0.00 0.00
3:53 am 03:53 Clear 62 16.7 55 12.8 78 78 Calm 29.86 1011 10 16 0.00 0.00
4:53 am 04:53 Clear 60 15.6 56 13.3 86 86 Calm 29.86 1011 10 16 0.00 0.00
5:53 am 05:53 Clear 60 15.6 55 12.8 84 84 Calm 29.88 1012 10 16 0.00 0.00
6:53 am 06:53 Clear 60 15.6 54 12.2 80 80 NNW 3 6 29.91 1013 10 16 0.00 0.00
7:53 am 07:53 Sunny 59 15 55 12.8 87 87 Calm 29.92 1013 10 16 0.00 0.00
8:53 am 08:53 Sunny 67 19.4 56 13.3 68 68 Calm 29.94 1014 10 16 0.00 0.00
9:53 am 09:53 Sunny 72 22.2 57 13.9 59 59 Calm 29.95 1014 10 16 0.00 0.00
10:53 am 10:53 Sunny 79 26.1 57 13.9 47 47 NE 3 6 29.94 1014 10 16 0.00 0.00
11:53 am 11:53 Sunny 82 27.8 58 14.4 44 44 Calm 29.94 1014 10 16 0.00 0.00
12:53 pm 12:53 Sunny 86 30 53 11.7 32 32 N 6 9 29.92 1013 10 16 0.00 0.00
1:53 pm 13:53 Sunny 88 31.1 59 15 38 38 NNW 8 13 29.90 1013 10 16 0.00 0.00
2:53 pm 14:53 Sunny 88 31.1 59 15 38 38 NW 10 17 29.88 1012 10 16 0.00 0.00
3:53 pm 15:53 Sunny 90 32.2 59 15 35 35 SSW 6 9 29.85 1011 10 16 0.00 0.00
4:53 pm 16:53 Sunny 89 31.7 59 15 36 36 Calm 29.85 1011 10 16 0.00 0.00
5:53 pm 17:53 Sunny 91 32.8 61 16.1 37 37 WNW 9 15 29.85 1011 10 16 0.00 0.00
6:53 pm 18:53 Sunny 89 31.7 60 15.6 38 38 WNW 6 9 29.85 1011 10 16 0.00 0.00
7:53 pm 19:53 Clear 81 27.2 63 17.2 54 54 Calm 29.86 1011 10 16 0.00 0.00
8:53 pm 20:53 Clear 78 25.6 64 17.8 62 62 Calm 29.87 1012 10 16 0.00 0.00
9:53 pm 21:53 Clear 73 22.8 66 18.9 79 79 Calm 29.89 1012 10 16 0.00 0.00
10:53 pm 22:53 Clear 73 22.8 65 18.3 76 76 Calm 29.89 1012 10 16 0.00 0.00
11:53 pm 23:53 Clear 73 22.8 64 17.8 74 74 Calm 29.90 1013 10 16 0.00 0.00

Powered by AerisWeather